Weather History for Henderson, NV

Change the Weather History Date:

Thursday, March 7, 2013

  Actual Average (KLAS) Record (KLAS)
Temperature  
Mean Temperature 52 °F 58 °F  
Max Temperature 59 °F 68 °F 84 °F (1972)
Min Temperature 46 °F 48 °F 27 °F (1940)
Degree Days  
Heating Degree Days 12 7  
Month to date heating degree days 57  
Since 1 July heating degree days 1748  
Cooling Degree Days 0 0  
Month to date cooling degree days 0  
Year to date cooling degree days 1  
Growing Degree Days 2 (Base 50)    
Moisture  
Dew Point 31 °F    
Average Humidity 43    
Maximum Humidity 56    
Minimum Humidity 31    
Precipitation  
Precipitation 0.00 in 0.02 in 0.65 in (1992)
Month to date precipitation 0.15  
Year to date precipitation 1.45  
Snow  
Snow 0.00 in 0.00 in 0.00 in (2013)
Month to date snowfall 0.0  
Since 1 July snowfall 0.3  
Snow Depth -    
Sea Level Pressure  
Sea Level Pressure 29.86 in    
Wind  
Wind Speed 16 mph (SSW)    
Max Wind Speed 28 mph    
Max Gust Speed 29 mph    
Visibility 10 miles    
Events      
T = Trace of Precipitation, MM = Missing Value Source: NWS Daily Summary

Daily Weather History Graph

Daily Weather History Graph

Search for Another Location

Airport:

Trip Planner

Search our weather history database for the weather conditions in past years. The results will help you decide how hot, cold, wet, or windy it might be!

Date:

Astronomy

Mar. 07, 2013 Rise Set
Actual Time 6:02 AM PST 5:41 PM PST
Civil Twilight 5:36 AM PST 6:06 PM PST
Nautical Twilight 5:06 AM PST 6:36 PM PST
Astronomical Twilight 4:37 AM PST 7:06 PM PST
Moon 2:58 AM PST (3/7) 1:40 PM PST (3/7)
Length of Visible Light 12h 30m
Length of Day
11h 39m
Waning Crescent, 19% of the Moon is Illuminated
Mar 7
Waning Crescent
Mar 11
New
Mar 19
First Quarter
Mar 27
Full
Apr 2
Last Quarter

Hourly Weather History & Observations

Time (PST) Temp. Dew Point Humidity Pressure Visibility Wind Dir Wind Speed Gust Speed Precip Events Conditions
12:56 AM 50.9 °F 32.0 °F 48% 29.86 in 10.0 mi SW 27.6 mph - N/A   Clear
1:56 AM 50.0 °F 32.0 °F 50% 29.85 in 10.0 mi SSW 19.6 mph 28.8 mph N/A   Clear
2:56 AM 48.9 °F 32.0 °F 52% 29.85 in 10.0 mi South 17.3 mph - N/A   Clear
3:56 AM 48.9 °F 32.0 °F 52% 29.85 in 10.0 mi South 19.6 mph - N/A   Clear
4:56 AM 47.8 °F 32.0 °F 54% 29.88 in 10.0 mi South 16.1 mph 25.3 mph N/A   Clear
5:56 AM 46.9 °F 32.0 °F 56% 29.90 in 10.0 mi South 12.7 mph - N/A   Clear
6:56 AM 48.9 °F 32.0 °F 52% 29.91 in 10.0 mi South 18.4 mph - N/A   Clear
7:56 AM 52.9 °F 32.0 °F 45% 29.91 in 10.0 mi South 18.4 mph - N/A   Clear
8:56 AM 54.9 °F 31.1 °F 40% 29.91 in 10.0 mi SSW 12.7 mph - N/A   Clear
9:56 AM 57.9 °F 29.1 °F 33% 29.90 in 10.0 mi SW 13.8 mph - N/A   Clear
10:56 AM 57.9 °F 29.1 °F 33% 29.91 in 10.0 mi SSW 11.5 mph - N/A   Clear
11:56 AM 59.9 °F 30.0 °F 32% 29.88 in 10.0 mi SW 18.4 mph 24.2 mph N/A   Clear
12:56 PM 59.9 °F 29.1 °F 31% 29.86 in 10.0 mi SW 9.2 mph - N/A   Clear
1:56 PM 59.9 °F 29.1 °F 31% 29.85 in 10.0 mi SW 6.9 mph - N/A   Clear
2:56 PM 59.9 °F 30.0 °F 32% 29.83 in 10.0 mi SSW 12.7 mph 19.6 mph N/A   Clear
3:56 PM 59.0 °F 30.2 °F 34% 29.84 in 10.0 mi SW 11.5 mph - N/A   Clear
4:56 PM 57.9 °F 31.1 °F 36% 29.84 in 10.0 mi SW 8.1 mph - N/A   Clear
5:56 PM 56.8 °F 31.1 °F 38% 29.86 in 10.0 mi SSW 8.1 mph - N/A   Clear
6:56 PM 55.9 °F 31.1 °F 39% 29.86 in 10.0 mi South 4.6 mph - N/A   Partly Cloudy
7:56 PM 54.9 °F 31.1 °F 40% 29.84 in 10.0 mi South 4.6 mph - N/A   Clear
8:56 PM 52.9 °F 32.0 °F 45% 29.85 in 10.0 mi SSE 5.8 mph - N/A   Scattered Clouds
9:56 PM 52.9 °F 32.0 °F 45% 29.82 in 10.0 mi Calm Calm - N/A   Clear
10:56 PM 48.9 °F 31.1 °F 50% 29.82 in 10.0 mi Calm Calm - N/A   Clear
11:56 PM 47.8 °F 31.1 °F 52% 29.81 in 10.0 mi South 5.8 mph - N/A   Clear